www.pogodaiklimat.ru
ПОГОДА на Базе ВВС Дэвис-Монтан
Время
и дата
03:55 06.02
04:55 06.02
05:55 06.02
06:55 06.02
07:55 06.02
08:55 06.02
09:55 06.02
10:55 06.02
11:55 06.02
11:58 06.02
12:55 06.02
13:55 06.02
14:12 06.02
14:20 06.02
14:55 06.02
14:56 06.02
15:55 06.02
15:56 06.02
16:55 06.02
17:55 06.02
18:55 06.02
19:55 06.02
20:55 06.02
21:55 06.02
22:55 06.02
23:55 06.02
00:55 07.02
01:55 07.02
02:55 07.02
03:55 07.02
04:55 07.02
05:55 07.02
06:55 07.02
07:55 07.02
08:55 07.02
09:55 07.02
10:55 07.02
11:55 07.02
12:28 07.02
12:55 07.02
13:17 07.02
13:55 07.02
14:55 07.02
15:55 07.02
16:55 07.02
17:55 07.02
18:55 07.02
19:55 07.02
Ветер
(напр.,м/с)
Видим. Явления Облачность Т
(С)
Тd
(С)
f
(%)
Тe
(С)
Тes
(С)
Комфортность P
(гПа)
Po
(гПа)
Тmin
(С)
Tmax
(С)
R
(мм)
R24
(мм)
S
(см)
ЮВ 2 16 км ясно +4.2 -2.4 62 +2 +2 1017.4 919.7
ЮВ 4 16 км ясно +3.9 -3.6 58 0 0 1017.6 919.7 +3.9 +9.5
ЮВ 4 16 км ясно +3.7 -3.3 60 0 0 1017.5 919.4
ЮВ 5 16 км ясно +3.6 -3.7 59 -1 -1 1018.0 919.7
ЮЗ 3 16 км ясно +4.9 -3.4 55 +2 +2 1018.7 920.4
ЮЗ 2 16 км ясно +9.3 -4.3 38 +8 +9 1018.9 920.7
З 3 16 км ясно +11.4 -1.7 40 +10 +13 1019.6 921.3
З 3 16 км ясно +13.1 -1.3 37 +12 +17 1015.4 921.3 +3.0 +13.1
З 6 16 км ясно +14.9 -2.5 30 +13 +17 1014.2 920.4
З 6 16 км ясно +15.0 -3.0 29 +14 +17 1014.2 920.4
З 6
{9}
16 км ясно +15.4 -6.8 21 +14 +18 1013.4 919.4
З 6
{8}
16 км ясно +16.0 -8.3 18 +15 +19 1012.3 918.5
СЗ 8
{10}
16 км ясно +16.0 -9.0 17 +15 +16 1012.2 918.5
З 6
{11}
16 км ясно +16.0 -7.0 20 +15 +18 1012.7 918.8
СЗ 9
{13}
16 км 5/0 2400 m
[Ac]
+15.6 -4.9 24 +14 +14 1012.3 918.5
З 7
{13}
16 км 5/0 2400 m
[Ac]
+16.0 -5.0 23 +15 +16 1012.3 918.5
З 8
{10}
16 км ясно +15.3 -8.2 19 +14 +15 1013.2 919.1
СЗ 8
{11}
16 км ясно +15.0 -8.0 20 +13 +14 1013.2 919.1
СЗ 10 16 км ясно +14.0 -6.8 23 +12 +12 1014.1 919.7 +13.2 +16.4
З 8 16 км ясно +11.9 -5.6 29 +9 +9 1015.4 920.7
З 5 16 км ясно +11.0 -5.1 32 +9 +9 1016.2 921.3
З 3 16 км ясно +9.1 -4.5 38 +7 +7 1016.6 921.6
З 2 16 км ясно +7.9 -3.9 43 +7 +7 1016.2 921.6
ЮВ 3 16 км ясно +7.2 -3.9 45 +5 +5 1016.5 921.9
ЮВ 3 16 км ясно +5.3 -4.0 51 +3 +3 1016.5 921.9 +5.3 +14.0
В 4 16 км ясно +4.7 -3.8 54 +1 +1 1017.0 922.5
Ю 4 16 км ясно +4.0 -4.2 55 0 0 1021.3 922.5
В 3 16 км ясно +3.8 -3.9 57 +1 +1 1021.3 922.5
Ю 4 16 км ясно +1.9 -4.0 65 -3 -3 1021.9 922.8
Ю 2 16 км ясно +1.7 -4.4 64 -1 -1 1022.2 923.1
Ю 2 16 км ясно +0.4 -4.8 68 -3 -3 1023.0 923.4 +0.4 +5.5
штиль 0 16 км ясно 0.0 -5.0 69 -1 -1 1023.9 924.0
Ю 2 16 км ясно 0.0 -5.2 68 -3 -3 1024.6 924.7
Ю 3 16 км ясно +1.4 -5.5 60 -2 -2 1025.5 925.3
ЮЗ 3 16 км ясно +5.7 -5.6 44 +3 +4 1025.7 925.9
З 4 16 км ясно +7.2 -6.2 38 +4 +7 1025.7 925.9
СЗ 2 16 км ясно +9.5 -6.0 33 +9 +15 1021.2 925.9 -0.7 +9.5
СЗ 2 16 км ясно +11.9 -6.0 28 +11 +20 1020.9 925.6
З 6
{9}
16 км ясно +14.0 -8.0 21 +12 +16 1020.3 925.3
З 5 16 км ясно +13.7 -7.1 23 +12 +18 1020.0 925.0
З 6 16 км ясно +14.0 -7.0 23 +12 +16 1019.6 924.7
СЗ 4
{9}
16 км ясно +14.0 -6.8 23 +13 +20 1019.3 924.3
З 6 16 км ясно +14.8 -6.7 22 +13 +17 1019.1 924.0
З 6 16 км ясно +15.0 -6.6 22 +14 +16 1019.1 924.0
З 6 16 км ясно +14.7 -7.4 21 +13 +14 1019.5 924.3 +9.6 +15.2
З 4 16 км ясно +13.0 -6.6 25 +12 +12 1020.4 925.0
З 3 16 км ясно +11.2 -6.2 29 +10 +10 1021.3 925.6
З 4 16 км ясно +10.1 -6.7 30 +8 +8 1021.6 925.9
Местоположение метеостанции Davis-Monthan Air Force Base: широта 32.1667 долгота -110.8833 высота над уровнем моря 824 м.
В архиве по умолчанию представлена погода на Базе ВВС Дэвис-Монтан за последние 1-2 суток. Обновление информации о фактической погоде в базе происходит ежечасно! Архивные данные за месяц целиком и за предыдущие месяцы Вы можете получить, выбрав интересующий диапазон дат из раскрывающегося списка и нажав кнопку "Ввод!".
Внимание! Архив погоды МЕТАР в базе сайта по станциям, не включенным в климатический монитор, хранится не более 60 дней. Нет смысла пытаться выбрать более раннюю дату.
*Определитесь, кто Вы:
Внимание! Время в таблицах - местное (без учета летнего времени). Для получения всемирного времени необходимо вычесть поправку, которая равна -7 ч.
Смотрите также архив погоды в соседних городах и на ближайших метеорологических станциях:
Партнеры нашего сайта:      
Пояснения к столбцам:
  • Ветер - указаны скорость ветра в м/с - средняя за 10 мин, порывы в срок и между сроками (в фигурных скобках) и направление, откуда дует ветер: С - северный,
  • СВ - северо-восточный, В - восточный, ЮВ - юго-восточный, Ю - южный, ЮЗ - юго-западный, З - западный, СЗ - северо-западный.
  • Видимость - горизонтальная дальность видимости в метрах или километрах. При видимости от 1 до 10 км при отсутствии осадков обычно наблюдается дымка, при ухудшении видимости до 1 км и менее - туман. В сухую погоду видимость может ухудшаться дымом, пылью или мглою.
  • Явления - указаны атмосферные явления, наблюдавшиеся в срок или в последний час перед сроком; фигурными скобками обозначены явления, наблюдавшиеся между сроками (за 1-3 часа до срока); квадратными скобками обозначены град или гололедные отложения с указанием их диаметра в мм.
  • Облачность - указаны через наклонную черту общая и нижняя облачность в баллах и высота нижней границы облаков в метрах; квадратными скобками обозначены формы облаков: Ci - перистые, Cs - перисто-слоистые, Cc - перисто-кучевые, Ac - высококучевые, As - высокослоистые, Sc - слоисто-кучевые, Ns - слоисто-дождевые, Cu - кучевые, Cb - кучево-дождевые. Подробнее классификацию облаков см. в Атласе облаков (PDF).
  • T - Температура воздуха - температура, измеренная на высоте 2 м над землей.
  • Td - Температура точки росы - температура, при понижении до которой содержащийся в воздухе водяной пар достигнет насыщения.
  • f - Относительная влажность воздуха - влажноcть воздуха, измеренная на высоте 2 м над землей.
  • Te - Эффективная температура - температура, которую ощущает одетый по сезону человек в тени. Характеристика душности погоды. При расчете учитывается влияние влажности воздуха и скорости ветра на теплоощущения человека.
  • Tes - Эффективная температура на солнце - температура, которую ощущает человек, с поправкой на солнечный нагрев. Характеристика знойности погоды. Зависит от высоты солнца над горизонтом, облачности и скорости ветра. Ночью, в пасмурную погоду, а также при ветре 12 м/с и более поправка равна нулю.
  • P - Атмосферное давление - приведенное к уровню моря атмосферное давление.
  • Po - Атмосферное давление - измеренное на уровне метеостанции атмосферное давление.
  • Tmin - Минимальная температура - минимум температуры воздуха на высоте 2 м над землей.
  • Tmax - Максимальная температура - максимум температуры воздуха на высоте 2 м над землей.
  • R - Количество осадков - Количество выпавших осадков за период времени, мм. При наведении курсора мыши на число - период времени, за который выпало указанное количество осадков.
  • R24 - Количество осадков - Количество выпавших осадков за 24 часа, мм.
  • S - Снежный покров - Высота снежного покрова, см. При наведении курсора мыши на число - состояние снежного покрова и степень покрытия местности в баллах.